This is the latest recevied weather packets stored in our database for station/object S56VIL-11. If no packets are shown the sender has not sent any weather packets the latest 10 day(s).
| Time | Temp. | Humidity | Pressure | Rain* | Wind** | Luminosity | Snow |
|---|---|---|---|---|---|---|---|
| 1777632905 | 17.22° C | 56% | 1037.3 hPa | - | - | - | - |
| 1777631998 | 18.89° C | 56% | 1037.4 hPa | - | - | - | - |
| 1777631101 | 18.89° C | 57% | 1037.5 hPa | - | - | - | - |
| 1777630198 | 20° C | 57% | 1037.5 hPa | - | - | - | - |
| 1777629349 | 19.44° C | 57% | 1037.7 hPa | - | - | - | - |
| 1777629301 | 19.44° C | 57% | 1037.7 hPa | - | - | - | - |
| 1777628398 | 20° C | 56% | 1037.8 hPa | - | - | - | - |
| 1777627501 | 19.44° C | 56% | 1037.9 hPa | - | - | - | - |
| 1777626597 | 20° C | 55% | 1037.9 hPa | - | - | - | - |
| 1777625700 | 18.89° C | 55% | 1037.9 hPa | - | - | - | - |
| 1777624797 | 17.78° C | 55% | 1038 hPa | - | - | - | - |
| 1777623900 | 14.44° C | 57% | 1038 hPa | - | - | - | - |
| 1777622996 | 12.22° C | 57% | 1038.1 hPa | - | - | - | - |
| 1777622099 | 10.56° C | 56% | 1038.1 hPa | - | - | - | - |
| 1777621196 | 10° C | 56% | 1038.1 hPa | - | - | - | - |
| 1777620299 | 10° C | 57% | 1038 hPa | - | - | - | - |
| 1777619396 | 9.44° C | 56% | 1037.8 hPa | - | - | - | - |
| 1777618499 | 8.89° C | 57% | 1037.7 hPa | - | - | - | - |
| 1777617602 | 8.89° C | 58% | 1037.8 hPa | - | - | - | - |
| 1777616698 | 8.33° C | 57% | 1037.6 hPa | - | - | - | - |
| 1777615795 | 8.33° C | 57% | 1037.4 hPa | - | - | - | - |
| 1777614898 | 8.33° C | 58% | 1037.5 hPa | - | - | - | - |
| 1777613995 | 9.44° C | 57% | 1037.3 hPa | - | - | - | - |
| 1777613097 | 9.44° C | 57% | 1037.3 hPa | - | - | - | - |
| 1777612194 | 6.67° C | 56% | 1037.2 hPa | - | - | - | - |
* Rain since midnight (hover to see other rain measurements)
** Current wind speed in m/s (hover to see current wind gust speed)